Showing default

EAGLESAT 1, 43018

Orbit data source: Space-Track

EAGLESAT 1, 43018 is a payload satellite owned by Embry-Riddle (US) in LEO that was launched on Sat, 18 Nov 2017 UTC via a DELTA 7920-10C launch vehicle from the Air Force Western Test Range (AFWTR). Payload-class satellites include a variety of spacecraft equipped with specific instruments for various scientific and technological missions. These include communications satellites like Starlink; space stations such as the ISS; scientific satellites like the Hubble; Earth observation satellites from companies like Planet Labs, Umbra, and HawkEye 360; GPS; miniature CubeSats for education and research; and military/defense satellites.

Not visible in the next 10 days
Identifier
43018, 2017-073F
Orbit
LEO
Country
Flag of USUS
Related business
Manufacturer
Embry-Riddle
Mission
Non-operational Amateur Technology
Bus & Motor
CUBESAT 1U, Unknown motor
Mass
1 kg wet, 1 kg dry
Launch date (UTC)
2017-11-18 (8 years ago)
Launch vehicle
DELTA 7920-10C
Launch site
Air Force Western Test Range (AFWTR)
Object type
Payload
Rocket body
Debris
Shape & HBR
Box, 0.1 m
Radar Cross Section
0.015 m², Small (<0.1 m²)

Expand to show TLE details & history
Last TLE update: 1 month ago

TLE from 1 month ago
0 EAGLESAT 1
1 43018U 17073F   25317.28448551  .18135023  27542-5  46852-3 0  9995
2 43018  97.4848 220.6904 0010374 201.0159 159.0718 16.45094922434952
Epoch: 2025-11-13T06:49Z
TLE epoch observation values (Epoch: 2025-11-13T06:49:39.548Z)
Latitude
Longitude
65.63108°
Altitude
161.87 km
Speed
7.805 km/s
True Right ascension
14h 42m 45s
True Declination
0° 00' 00"
Sunlit
Object was in daylight at epoch
Visualization orbit readout
Latitude
Unknown
Longitude
Unknown
Altitude
Unknown
Speed
Unknown
Apparent Right ascension
Unknown
Apparent Declination
Unknown
Sunlit
N/A
Visualization observer readout
Local Sidereal Time
21:16:45
Azimuth
Unknown
Elevation
Unknown
Doppler factor
Unknown
Orbital elements
Apogee altitude
155.86 km
Perigee altitude
142.318 km
Semi-major axis
6,527.226 km
Eccentricity
0.00104
Inclination
97.4848°
RAAN
220.6904°
Arg. of periapsis
201.0159°
True anomaly
159.11421°
Mean anomaly
159.0718°
Eccentric anomaly
159.09301°
Mean motion
4.11576 °/min
Orbital period
87.47 mins
BSTAR
0.00046852
Loading maneuver chart data...
Computing Atmospheric mass density...
Loading historical data...
Loading historical data...
Loading historical data...
Loading historical data...
Loading historical data...
Loading historical data...
Loading historical data...
Other satellites on launch #73 in the year 2017 (2017-11-18 UTC)

Documentation

Showing up to 5 results
|